Meteo Giornale » Osservazioni meteo Gran Bretagna » Humberside
ore: 18:50 - Osservazioni Meteo Humberside
Lat. 53° 35' N Lon. 0° 21' W Alt. 31 metri s.l.m.
19 °C
Poco Nuvoloso
Temp. 24 Ore
15 °C
22 °C
Ovest
22.2 Km/h
Dew point 12 °C
Umidità 63 %
Visibilità 10 Km
Il sole sorge alle ore 06:08
Il sole tramonta alle ore 19:54
| Data e Ora | Cielo e Fenomeni | T °C | DP °C | Um. % | Pres. hPa | Vis. km | Vento km/h | |
|---|---|---|---|---|---|---|---|---|
| Oggi h: 18:50 | Poco Nuvoloso | 19 | 12 | 63 | 1013 | 10 | O 22.2 | |
| Oggi h: 18:20 | Poco Nuvoloso | 20 | 12 | 59 | 1013 | 10 | O 27.8 | |
| Oggi h: 17:50 | Poco Nuvoloso | 21 | 12 | 56 | 1012 | 10 | O 22.2 | |
| Oggi h: 17:20 | Nuvoloso | 21 | 13 | 60 | 1012 | 10 | O 25.9 | |
| Oggi h: 16:50 | Pioggia nelle vicinanze | 22 | 14 | 60 | 1011 | 10 | O 27.8 | |
| Oggi h: 16:20 | Pioggia nelle vicinanze | 20 | 16 | 77 | 1011 | 10 | O/NO 11.1 | |
| Oggi h: 15:50 | Pioggia | 20 | 15 | 72 | 1011 | 7 | O/NO 18.5 | |
| Oggi h: 15:20 | Pioggia nelle vicinanze | 20 | 16 | 77 | 1011 | 10 | O/NO 11.1 | |
| Oggi h: 14:50 | Pioggia | 21 | 14 | 64 | 1010 | 10 | O 20.3 | |
| Oggi h: 14:20 | Pioggia nelle vicinanze | 21 | 14 | 64 | 1010 | 10 | O 14.8 | |
| Oggi h: 13:50 | Pioggia | 21 | 14 | 64 | 1009 | 10 | O 18.5 | |
| Oggi h: 13:20 | Pioggia nelle vicinanze | 21 | 14 | 64 | 1009 | 10 | O 16.7 | |
| Oggi h: 12:50 | Nuvoloso | 21 | 14 | 64 | 1009 | 10 | O/NO 20.3 | |
| Oggi h: 12:20 | Nuvoloso | 21 | 14 | 64 | 1008 | 10 | O/NO 18.5 | |
| Oggi h: 11:50 | Nuvoloso | 20 | 14 | 68 | 1008 | 10 | NO 22.2 | |
| Oggi h: 11:20 | Nuvoloso | 20 | 14 | 68 | 1007 | 10 | O/NO 20.3 | |
| Oggi h: 10:50 | Nuvoloso | 19 | 14 | 72 | 1007 | 10 | O/NO 20.3 | |
| Oggi h: 10:20 | Nuvoloso | 18 | 14 | 77 | 1007 | 10 | O/NO 22.2 | |
| Oggi h: 09:50 | Nuvoloso | 18 | 15 | 82 | 1006 | 10 | O/NO 20.3 | |
| Oggi h: 09:20 | Nuvoloso | 17 | 15 | 88 | 1006 | 10 | O 16.7 | |
| Oggi h: 08:50 | Molto Nuvoloso | 17 | 15 | 88 | 1005 | 10 | O 16.7 | |
| Oggi h: 08:20 | Poco Nuvoloso | 16 | 15 | 93 | 1005 | 10 | O 14.8 | |
| Oggi h: 07:50 | Molto Nuvoloso | 16 | 15 | 93 | 1005 | 9 | O/SO 13 | |
| Oggi h: 07:20 | Molto Nuvoloso | 15 | 15 | 100 | 1004 | 9 | O/SO 13 | |
| Oggi h: 06:50 | Molto Nuvoloso | 15 | 15 | 100 | 1004 | 9 | O/SO 13 | |
| Oggi h: 06:20 | Molto Nuvoloso | 15 | 15 | 100 | 1003 | 10 | O/SO 13 | |
| Oggi h: 05:50 | Nuvoloso | 15 | 14 | 93 | 1003 | 10 | SO 11.1 | |
| Oggi h: 05:20 | Molto Nuvoloso | 15 | 14 | 93 | 1003 | 10 | SO 9.3 | |
| Oggi h: 04:50 | Coperto | 15 | 14 | 93 | 1003 | 10 | N 5.5 | |
| Oggi h: 04:20 | Molto Nuvoloso | 15 | 14 | 93 | 1003 | 10 | N 3.7 | |
| Oggi h: 03:50 | Poco Nuvoloso | 15 | 14 | 93 | 1003 | 10 | O/SO 7.4 | |
| Oggi h: 03:20 | Nuvoloso | 15 | 14 | 93 | 1003 | 10 | N 1.8 | |
| Oggi h: 02:50 | Pioggia | 15 | 14 | 93 | 1002 | 10 | N 3.7 | |
| Oggi h: 02:20 | Molto Nuvoloso | 15 | 14 | 93 | 1003 | 10 | N 5.5 | |
| Oggi h: 01:50 | Molto Nuvoloso | 15 | 14 | 93 | 1003 | 10 | N 5.5 | |
| Oggi h: 01:20 | Pioggia | 15 | 14 | 93 | 1003 | 10 | N 1.8 | |
| Oggi h: 00:50 | Nuvoloso | 15 | 14 | 93 | 1003 | 10 | N 5.5 | |
| Oggi h: 00:20 | Pioggia | 15 | 14 | 93 | 1003 | 10 | N 5.5 | |
| Ieri h: 23:50 | Pioggia | 15 | 14 | 93 | 1004 | 5 | O/SO 13 | |
| Ieri h: 23:20 | Pioggia | 16 | 15 | 93 | 1004 | 4 | O/SO 22.2 | |
| Ieri h: 22:50 | Poco Nuvoloso | 16 | 15 | 93 | 1004 | 10 | S/SO 9.3 | |
| Ieri h: 22:20 | Pioggia | 16 | 15 | 93 | 1004 | 10 | S/SO 11.1 | |
| Ieri h: 21:50 | Pioggia | 16 | 14 | 87 | 1004 | 8 | SO 22.2 | |
| Ieri h: 21:20 | Pioggia | 17 | 15 | 88 | 1005 | 9 | SO 27.8 | |
| Ieri h: 20:50 | Temporale nelle vicinanze Pioggia nelle vicinanze | 17 | 15 | 88 | 1005 | 10 | S/SO 16.7 | |
| Ieri h: 20:20 | Temporale nelle vicinanze | 16 | 15 | 93 | 1004 | 10 | S/SO 11.1 | |
| Ieri h: 19:50 | Temporale | 17 | 14 | 82 | 1004 | 6 | S 24 | |



